STARLINK-35413

Last updated on Mon Oct 20 2025 00:02:08 GMT+0000 (Coordinated Universal Time)

1 65886U 25224E 25292.25002315 -.01482110 00000+0 -79953-2 0 9999 2 65886 53.1507 313.5064 0000940 89.6158 27.4944 15.82171205 3058
UTC large
Height (km)
Speed (km/s)
/
Latitude / Longitude
Inclination (degrees)
Orbital Period (minutes)
Azimuth
Elevation
Range (km)
Doppler Factor

Next 0 passes for location: London (51.5072 / 0.1276)

Sorry there are no passes over London.